Simultaneous Nadir Overpasses (SNOs) Predictions

Prediction of SNOs between GOES-16 and FY3D Satellite Orbit:

Table of predicted SNOs for the next 14.0 days since TLE Epoch: 2/28/2025
Index Date Time (GOES-16) GOES-16 Lat,Lon FY3D Lat,Lon Distance(km) Time Diff (sec)
1 03/01/2025 08:14:14 -0.05, -75.21 0.91, -79.45 484.34 80
2 03/02/2025 07:52:47 -0.06, -75.21 -0.11, -74.89 35.57 80
3 03/04/2025 19:55:54 0.06, -75.21 -0.03, -75.59 43.40 80
4 03/05/2025 19:39:48 0.06, -75.22 0.99, -71.03 476.97 80
5 03/07/2025 08:01:33 -0.05, -75.25 0.16, -76.25 114.38 80
6 03/08/2025 07:40:07 -0.05, -75.25 -0.87, -71.70 406.13 80
7 03/09/2025 20:01:58 0.03, -75.25 -0.37, -76.93 191.83 80
8 03/10/2025 19:45:51 0.03, -75.27 0.67, -72.37 329.64 80
9 03/12/2025 08:07:37 -0.02, -75.32 0.47, -77.60 259.48 80
10 03/13/2025 07:46:09 -0.02, -75.33 -0.52, -73.03 262.31 80
